Location: *
(48.4333°N, 5.0333°W)
Time: 11:45:47
(UTC+00:00)

Cosmos 841 Rocket - Pass Details

Date: 09 April 2020
Orbit: 747 x 772 km, 74.0° (Epoch: 03 June)

Event Time Altitude Azimuth Distance (km) Brightness Sun altitude
Rises 22:01:40 0° 334° (NNW) 3,258 8.0 -25.7°
Reaches altitude 10° 22:04:05 10° 332° (NNW) 2,326 7.0 -26.0°
Maximum altitude 22:09:18 64° 252° (WSW) 851 3.7 -26.5°
Enters shadow 22:09:37 63° 231° (SW) 861 3.6 -26.5°
